FIN3YX EDDB-EFHK

Flight info

Callsign FIN3YX
Flight time 1h 32m
Altitude 35000
Route GERGA4N GERGA M725 RENKI L132 DEMUR/N0444F370 DCT GORPI DCT ALAMI DCT OKEVU DCT EVADI Y370 DIVAM
Aircraft A321/M-SDE1E2E3FGIJ1M1RWXYZ/LB1

Departure

Time 2026-05-04 11:55
Airport Berlin Brandenburg Airport (EDDB)

Arrival

Time 2026-05-04 13:28
Airport Helsinki Vantaa Airport (EFHK)
Time Latitude Longitude Altitude Speed Heading
2026-05-04 11:10 52.36038 13.50972 155 ft 0 kts
2026-05-04 11:47 52.36035 13.50972 155 ft 2 kts
2026-05-04 11:47 52.36009 13.50968 155 ft 4 kts
2026-05-04 11:48 52.35986 13.50966 155 ft 4 kts 351°
2026-05-04 11:48 52.35968 13.50984 155 ft 4 kts 288°
2026-05-04 11:48 52.35966 13.51025 155 ft 4 kts 255°
2026-05-04 11:48 52.35968 13.51037 155 ft 0 kts 249°
2026-05-04 11:50 52.35966 13.51029 155 ft 4 kts 249°
2026-05-04 11:51 52.35957 13.50991 155 ft 4 kts 248°
2026-05-04 11:51 52.35947 13.50951 155 ft 4 kts 248°
2026-05-04 11:51 52.35935 13.50902 155 ft 8 kts 249°
2026-05-04 11:51 52.35915 13.50817 155 ft 8 kts 249°
2026-05-04 11:52 52.35870 13.50770 155 ft 10 kts 176°
2026-05-04 11:52 52.35806 13.50804 155 ft 9 kts 160°
2026-05-04 11:52 52.35747 13.50838 155 ft 8 kts 162°
2026-05-04 11:52 52.35693 13.50831 155 ft 8 kts 204°
2026-05-04 11:53 52.35651 13.50782 155 ft 7 kts 217°
2026-05-04 11:53 52.35612 13.50733 155 ft 7 kts 218°
2026-05-04 11:53 52.35575 13.50685 154 ft 7 kts 218°
2026-05-04 11:53 52.35540 13.50638 154 ft 8 kts 220°
2026-05-04 11:55 52.34607 13.47082 498 ft 152 kts 249°
2026-05-04 11:55 52.34170 13.45502 1141 ft 154 kts 237°
2026-05-04 11:56 52.33439 13.44159 1682 ft 166 kts 228°
2026-05-04 11:56 52.32615 13.42710 2103 ft 181 kts 231°
2026-05-04 11:56 52.31769 13.41082 2553 ft 193 kts 231°
2026-05-04 11:56 52.30884 13.39358 2991 ft 204 kts 231°
2026-05-04 11:57 52.29920 13.37502 3300 ft 224 kts 230°
2026-05-04 11:57 52.28916 13.35608 4105 ft 223 kts 230°
2026-05-04 11:57 52.27895 13.33696 4917 ft 223 kts 230°
2026-05-04 11:57 52.26872 13.31791 5713 ft 223 kts 230°
2026-05-04 11:58 52.25744 13.29947 6269 ft 240 kts 218°
2026-05-04 11:58 52.24146 13.28940 6722 ft 260 kts 185°
2026-05-04 11:58 52.22338 13.29599 7278 ft 278 kts 153°
2026-05-04 11:58 52.20872 13.31715 7972 ft 289 kts 127°
2026-05-04 11:59 52.20083 13.34769 8708 ft 299 kts 101°
2026-05-04 11:59 52.20155 13.38192 9410 ft 307 kts 75°
2026-05-04 11:59 52.21103 13.41313 10061 ft 312 kts 51°
2026-05-04 11:59 52.22619 13.44010 10238 ft 334 kts 43°
2026-05-04 12:00 52.24348 13.46724 10399 ft 355 kts 42°
2026-05-04 12:00 52.26161 13.49529 10879 ft 363 kts 42°
2026-05-04 12:00 52.28011 13.52379 11498 ft 367 kts 42°
2026-05-04 12:00 52.29877 13.55257 12146 ft 370 kts 42°
2026-05-04 12:01 52.31755 13.58165 12788 ft 374 kts 42°
2026-05-04 12:01 52.33649 13.61103 13455 ft 377 kts 43°
2026-05-04 12:02 52.45339 13.79347 16835 ft 397 kts 42°
2026-05-04 12:03 52.47353 13.82500 17352 ft 401 kts 42°
2026-05-04 12:03 52.49380 13.85676 17864 ft 405 kts 42°
2026-05-04 12:03 52.51424 13.88882 18361 ft 408 kts 42°
2026-05-04 12:03 52.53479 13.92113 18805 ft 411 kts 42°
2026-05-04 12:04 52.55558 13.95359 19246 ft 413 kts 39°
2026-05-04 12:04 52.57880 13.98136 19666 ft 413 kts 27°
2026-05-04 12:04 52.60483 14.00122 20077 ft 412 kts 15°
2026-05-04 12:04 52.63256 14.01243 20463 ft 410 kts
2026-05-04 12:05 52.66088 14.01477 20845 ft 407 kts 353°
2026-05-04 12:05 52.68903 14.00963 21232 ft 407 kts 348°
2026-05-04 12:05 52.71725 14.00351 21626 ft 410 kts 348°
2026-05-04 12:05 52.74559 13.99740 22013 ft 412 kts 348°
2026-05-04 12:06 52.77412 13.99133 22392 ft 415 kts 348°
2026-05-04 12:06 52.80285 13.98524 22783 ft 417 kts 348°
2026-05-04 12:06 52.83175 13.97911 23166 ft 420 kts 348°
2026-05-04 12:06 52.86089 13.97357 23537 ft 425 kts 353°
2026-05-04 12:07 52.89067 13.97519 23861 ft 432 kts
2026-05-04 12:07 52.92026 13.98606 24204 ft 439 kts 15°
2026-05-04 12:07 52.94852 14.00611 24522 ft 446 kts 26°
2026-05-04 12:07 52.97452 14.03471 24838 ft 451 kts 34°
2026-05-04 12:08 52.99950 14.06559 25168 ft 453 kts 34°
2026-05-04 12:08 53.02487 14.09698 25495 ft 456 kts 34°
2026-05-04 12:08 53.05068 14.12895 25823 ft 458 kts 34°
2026-05-04 12:08 53.07598 14.16033 26140 ft 460 kts 34°
2026-05-04 12:09 53.10172 14.19233 26464 ft 463 kts 34°
2026-05-04 12:09 53.12759 14.22450 26766 ft 465 kts 34°
2026-05-04 12:09 53.15357 14.25683 27102 ft 468 kts 34°
2026-05-04 12:09 53.17972 14.28943 27382 ft 471 kts 34°
2026-05-04 12:10 53.20604 14.32231 27663 ft 473 kts 34°
2026-05-04 12:10 53.23244 14.35534 27956 ft 476 kts 34°
2026-05-04 12:10 53.25907 14.38848 28264 ft 477 kts 32°
2026-05-04 12:10 53.28733 14.41738 28554 ft 476 kts 24°
2026-05-04 12:11 53.31751 14.44036 28840 ft 476 kts 20°
2026-05-04 12:11 53.34795 14.46248 29137 ft 478 kts 20°
2026-05-04 12:11 53.37855 14.48471 29446 ft 481 kts 19°
2026-05-04 12:11 53.40934 14.50719 29704 ft 483 kts 19°
2026-05-04 12:12 53.44021 14.52984 29950 ft 485 kts 19°
2026-05-04 12:12 53.47119 14.55260 30169 ft 487 kts 19°
2026-05-04 12:12 53.50232 14.57548 30370 ft 489 kts 19°
2026-05-04 12:12 53.53354 14.59846 30560 ft 491 kts 19°
2026-05-04 12:13 53.56490 14.62158 30746 ft 493 kts 19°
2026-05-04 12:14 53.78460 14.78504 32607 ft 493 kts 19°
2026-05-04 12:15 53.81598 14.80846 32872 ft 493 kts 19°
2026-05-04 12:15 53.84737 14.83192 33159 ft 493 kts 18°
2026-05-04 12:15 53.87886 14.85552 33423 ft 494 kts 18°
2026-05-04 12:15 53.91023 14.87916 33687 ft 494 kts 18°
2026-05-04 12:16 53.94165 14.90291 33946 ft 494 kts 18°
2026-05-04 12:16 53.97302 14.92659 34173 ft 494 kts 18°
2026-05-04 12:16 54.00443 14.95027 34413 ft 493 kts 19°
2026-05-04 12:16 54.03576 14.97395 34658 ft 492 kts 19°
2026-05-04 12:17 54.06656 14.99733 34891 ft 491 kts 19°
2026-05-04 12:17 54.09767 15.02098 34967 ft 486 kts 19°
2026-05-04 12:17 54.15903 15.06755 34964 ft 480 kts 19°
2026-05-04 12:18 54.22007 15.11388 34964 ft 480 kts 19°
2026-05-04 12:18 54.28109 15.16030 34964 ft 480 kts 19°
2026-05-04 12:19 54.34214 15.20712 35071 ft 483 kts 19°
2026-05-04 12:19 54.37289 15.23073 35232 ft 485 kts 19°
2026-05-04 12:19 54.40368 15.25439 35436 ft 485 kts 19°
2026-05-04 12:20 54.42407 15.27011 35589 ft 485 kts 19°
2026-05-04 12:20 54.45478 15.29381 35820 ft 484 kts 19°
2026-05-04 12:20 54.48548 15.31749 36058 ft 483 kts 19°
2026-05-04 12:20 54.51612 15.34117 36278 ft 482 kts 20°
2026-05-04 12:21 54.54666 15.36486 36515 ft 481 kts 20°
2026-05-04 12:21 54.57722 15.38859 36702 ft 482 kts 20°
2026-05-04 12:21 54.60776 15.41231 36877 ft 481 kts 20°
2026-05-04 12:21 54.63835 15.43608 36953 ft 482 kts 20°
2026-05-04 12:22 54.69943 15.48385 36947 ft 482 kts 20°
2026-05-04 12:22 54.76047 15.53175 36948 ft 481 kts 20°
2026-05-04 12:23 54.82151 15.57967 36935 ft 482 kts 20°
2026-05-04 12:23 54.88267 15.62790 36928 ft 483 kts 20°
2026-05-04 12:24 54.94219 15.68290 36935 ft 487 kts 29°
2026-05-04 12:24 54.99930 15.74663 36928 ft 488 kts 29°
2026-05-04 12:25 55.05640 15.81067 36929 ft 488 kts 29°
2026-05-04 12:25 55.11360 15.87486 36928 ft 488 kts 29°
2026-05-04 12:26 55.17069 15.93912 36928 ft 488 kts 30°
2026-05-04 12:26 55.22751 16.00347 36929 ft 488 kts 30°
2026-05-04 12:27 55.28456 16.06823 36940 ft 488 kts 29°
2026-05-04 12:27 55.34158 16.13313 36930 ft 489 kts 30°
2026-05-04 12:28 55.39859 16.19820 36919 ft 489 kts 30°
2026-05-04 12:28 55.45564 16.26359 36908 ft 489 kts 30°
2026-05-04 12:29 55.51267 16.32924 36921 ft 490 kts 30°
2026-05-04 12:29 55.56969 16.39509 36903 ft 490 kts 30°
2026-05-04 12:30 55.62669 16.46109 36894 ft 490 kts 30°
2026-05-04 12:30 55.68368 16.52739 36892 ft 490 kts 30°
2026-05-04 12:31 55.74073 16.59397 36912 ft 490 kts 30°
2026-05-04 12:31 55.79772 16.66076 36898 ft 490 kts 30°
2026-05-04 12:32 55.88304 16.76116 36879 ft 490 kts 30°
2026-05-04 12:33 55.93950 16.82799 36867 ft 490 kts 30°
2026-05-04 12:33 55.99638 16.89539 36888 ft 490 kts 30°
2026-05-04 12:34 56.05327 16.96292 36875 ft 490 kts 30°
2026-05-04 12:34 56.11004 17.03069 36861 ft 490 kts 30°
2026-05-04 12:35 56.16678 17.09865 36858 ft 490 kts 30°
2026-05-04 12:35 56.22353 17.16695 36869 ft 490 kts 30°
2026-05-04 12:36 56.28019 17.23541 36848 ft 490 kts 30°
2026-05-04 12:36 56.33671 17.30389 36847 ft 490 kts 30°
2026-05-04 12:37 56.39293 17.37221 36837 ft 490 kts 30°
2026-05-04 12:37 56.44938 17.44110 36858 ft 490 kts 31°
2026-05-04 12:38 56.50582 17.51032 36847 ft 489 kts 30°
2026-05-04 12:38 56.56217 17.57949 36837 ft 489 kts 31°
2026-05-04 12:39 56.61844 17.64890 36841 ft 489 kts 31°
2026-05-04 12:39 56.67467 17.71860 36841 ft 489 kts 31°
2026-05-04 12:40 56.73088 17.78850 36841 ft 489 kts 31°
2026-05-04 12:40 56.78707 17.85851 36833 ft 489 kts 31°
2026-05-04 12:41 56.84320 17.92875 36830 ft 489 kts 31°
2026-05-04 12:41 56.89925 17.99947 36826 ft 489 kts 31°
2026-05-04 12:42 56.95531 18.07036 36839 ft 489 kts 31°
2026-05-04 12:42 57.01141 18.14124 36829 ft 489 kts 31°
2026-05-04 12:43 57.06746 18.21235 36821 ft 489 kts 31°
2026-05-04 12:43 57.12340 18.28367 36826 ft 489 kts 31°
2026-05-04 12:44 57.17933 18.35531 36844 ft 490 kts 31°
2026-05-04 12:44 57.23521 18.42713 36829 ft 490 kts 31°
2026-05-04 12:45 57.29072 18.49884 36817 ft 490 kts 32°
2026-05-04 12:45 57.34652 18.57112 36817 ft 490 kts 32°
2026-05-04 12:46 57.40232 18.64354 36801 ft 490 kts 32°
2026-05-04 12:46 57.45813 18.71636 36811 ft 490 kts 32°
2026-05-04 12:47 57.51383 18.78944 36813 ft 490 kts 32°
2026-05-04 12:47 57.56950 18.86257 36809 ft 490 kts 32°
2026-05-04 12:48 57.62527 18.93603 36814 ft 490 kts 32°
2026-05-04 12:48 57.68091 19.00980 36804 ft 490 kts 32°
2026-05-04 12:49 57.73646 19.08385 36802 ft 490 kts 32°
2026-05-04 12:49 57.79207 19.15807 36784 ft 490 kts 32°
2026-05-04 12:50 57.84727 19.23195 36791 ft 491 kts 32°
2026-05-04 12:50 57.90312 19.30721 36803 ft 491 kts 32°
2026-05-04 12:51 57.95860 19.38228 36798 ft 491 kts 32°
2026-05-04 12:51 58.01367 19.45702 36793 ft 491 kts 32°
2026-05-04 12:52 58.06909 19.53243 36789 ft 491 kts 32°
2026-05-04 12:52 58.12465 19.60813 36801 ft 492 kts 32°
2026-05-04 12:53 58.18006 19.68400 36794 ft 492 kts 33°
2026-05-04 12:53 58.23545 19.76033 36784 ft 492 kts 33°
2026-05-04 12:54 58.29077 19.83705 36775 ft 492 kts 33°
2026-05-04 12:54 58.34605 19.91398 36800 ft 492 kts 33°
2026-05-04 12:55 58.40143 19.99113 36783 ft 493 kts 33°
2026-05-04 12:55 58.45675 20.06842 36776 ft 493 kts 33°
2026-05-04 12:56 58.51215 20.14618 36769 ft 493 kts 33°
2026-05-04 12:56 58.56701 20.22366 36768 ft 493 kts 33°
2026-05-04 12:57 58.62224 20.30192 36788 ft 494 kts 33°
2026-05-04 12:57 58.67747 20.38035 36771 ft 494 kts 33°
2026-05-04 12:58 58.73262 20.45912 36765 ft 494 kts 33°
2026-05-04 12:58 58.78773 20.53819 36760 ft 494 kts 33°
2026-05-04 12:59 58.84285 20.61746 36777 ft 494 kts 34°
2026-05-04 12:59 58.89792 20.69712 36763 ft 494 kts 34°
2026-05-04 13:00 58.95292 20.77701 36730 ft 494 kts 34°
2026-05-04 13:00 59.00788 20.85727 36737 ft 494 kts 34°
2026-05-04 13:01 59.05736 20.95043 36779 ft 499 kts 52°
2026-05-04 13:01 59.09484 21.06421 36762 ft 499 kts 58°
2026-05-04 13:02 59.13092 21.17900 36755 ft 500 kts 58°
2026-05-04 13:02 59.16709 21.29473 36742 ft 500 kts 58°
2026-05-04 13:03 59.19707 21.39114 36740 ft 500 kts 58°
2026-05-04 13:03 59.23283 21.50758 36737 ft 500 kts 59°
2026-05-04 13:04 59.26862 21.62434 36752 ft 500 kts 59°
2026-05-04 13:04 59.30440 21.74113 36743 ft 500 kts 59°
2026-05-04 13:05 59.34003 21.85802 36722 ft 500 kts 59°
2026-05-04 13:05 59.37563 21.97532 36415 ft 501 kts 59°
2026-05-04 13:05 59.39330 22.03376 36132 ft 496 kts 59°
2026-05-04 13:06 59.41090 22.09211 35880 ft 498 kts 59°
2026-05-04 13:06 59.42855 22.15078 35634 ft 499 kts 59°
2026-05-04 13:06 59.44626 22.20970 34934 ft 505 kts 59°
2026-05-04 13:06 59.46419 22.26953 33990 ft 511 kts 60°
2026-05-04 13:07 59.48206 22.32948 33032 ft 515 kts 60°
2026-05-04 13:07 59.50014 22.39049 32643 ft 504 kts 60°
2026-05-04 13:07 59.51767 22.44982 32168 ft 498 kts 60°
2026-05-04 13:07 59.53480 22.50784 31656 ft 494 kts 60°
2026-05-04 13:08 59.55199 22.56607 31126 ft 490 kts 60°
2026-05-04 13:08 59.56904 22.62387 30587 ft 486 kts 60°
2026-05-04 13:08 59.58595 22.68138 30069 ft 482 kts 60°
2026-05-04 13:08 59.60267 22.73840 29437 ft 479 kts 60°
2026-05-04 13:09 59.61925 22.79516 28797 ft 476 kts 61°
2026-05-04 13:09 59.63567 22.85155 28210 ft 471 kts 61°
2026-05-04 13:09 59.65199 22.90775 27493 ft 471 kts 61°
2026-05-04 13:09 59.66814 22.96359 27021 ft 465 kts 61°
2026-05-04 13:10 59.68410 23.01891 26534 ft 461 kts 60°
2026-05-04 13:10 59.69993 23.07378 26049 ft 457 kts 60°
2026-05-04 13:10 59.71565 23.12826 25592 ft 453 kts 60°
2026-05-04 13:10 59.73123 23.18232 25135 ft 450 kts 60°
2026-05-04 13:11 59.74670 23.23602 24687 ft 447 kts 60°
2026-05-04 13:11 59.76205 23.28945 24246 ft 443 kts 60°
2026-05-04 13:11 59.77719 23.34242 23804 ft 440 kts 60°
2026-05-04 13:11 59.79222 23.39521 23358 ft 437 kts 60°
2026-05-04 13:12 59.80710 23.44758 22871 ft 433 kts 60°
2026-05-04 13:12 59.82185 23.49964 22452 ft 430 kts 60°
2026-05-04 13:12 59.83642 23.55123 21980 ft 426 kts 60°
2026-05-04 13:12 59.85077 23.60218 21671 ft 416 kts 61°
2026-05-04 13:13 59.86465 23.65147 21503 ft 402 kts 60°
2026-05-04 13:13 59.87815 23.69950 21136 ft 395 kts 61°
2026-05-04 13:13 59.89152 23.74728 20642 ft 392 kts 61°
2026-05-04 13:13 59.90476 23.79467 20143 ft 391 kts 61°
2026-05-04 13:14 59.91691 23.84220 19690 ft 388 kts 68°
2026-05-04 13:14 59.92737 23.89161 19258 ft 386 kts 68°
2026-05-04 13:14 59.93782 23.94077 18854 ft 384 kts 68°
2026-05-04 13:14 59.94834 23.99023 18450 ft 381 kts 68°
2026-05-04 13:15 59.95866 24.03876 18050 ft 379 kts 68°
2026-05-04 13:15 59.96889 24.08704 17597 ft 376 kts 68°
2026-05-04 13:15 59.97892 24.13453 17152 ft 374 kts 68°
2026-05-04 13:15 59.98896 24.18212 16715 ft 371 kts 68°
2026-05-04 13:16 59.99894 24.22962 16327 ft 368 kts 68°
2026-05-04 13:16 60.00879 24.27662 15922 ft 365 kts 68°
2026-05-04 13:16 60.01856 24.32332 15503 ft 363 kts 68°
2026-05-04 13:16 60.03054 24.36721 15087 ft 359 kts 50°
2026-05-04 13:17 60.04810 24.40184 14660 ft 352 kts 36°
2026-05-04 13:17 60.06698 24.43282 14244 ft 351 kts 35°
2026-05-04 13:17 60.08589 24.46364 13834 ft 348 kts 35°
2026-05-04 13:17 60.10462 24.49424 13427 ft 346 kts 35°
2026-05-04 13:18 60.12321 24.52474 12988 ft 344 kts 36°
2026-05-04 13:18 60.14164 24.55512 12561 ft 342 kts 36°
2026-05-04 13:18 60.15994 24.58534 12159 ft 339 kts 36°
2026-05-04 13:18 60.17800 24.61527 11600 ft 335 kts 36°
2026-05-04 13:19 60.19584 24.64494 11011 ft 331 kts 36°
2026-05-04 13:19 60.21348 24.67431 10432 ft 327 kts 36°
2026-05-04 13:19 60.23095 24.70348 10071 ft 324 kts 37°
2026-05-04 13:19 60.24830 24.73240 9815 ft 325 kts 37°
2026-05-04 13:20 60.26575 24.76145 9381 ft 324 kts 37°
2026-05-04 13:20 60.28300 24.79022 8988 ft 320 kts 37°
2026-05-04 13:20 60.30002 24.81866 8561 ft 317 kts 37°
2026-05-04 13:20 60.31686 24.84689 8051 ft 312 kts 37°
2026-05-04 13:21 60.33340 24.87464 7502 ft 306 kts 37°
2026-05-04 13:21 60.34961 24.90191 7010 ft 299 kts 37°
2026-05-04 13:21 60.36509 24.92806 6842 ft 280 kts 37°
2026-05-04 13:21 60.37959 24.95262 6623 ft 265 kts 37°
2026-05-04 13:22 60.39357 24.97621 6245 ft 259 kts 37°
2026-05-04 13:22 60.40764 24.99823 5796 ft 252 kts 26°
2026-05-04 13:22 60.42348 25.01174 5325 ft 244 kts
2026-05-04 13:22 60.44007 25.01565 4880 ft 238 kts 354°
2026-05-04 13:23 60.45617 25.01050 4442 ft 233 kts 339°
2026-05-04 13:23 60.47064 24.99667 4089 ft 227 kts 318°
2026-05-04 13:23 60.47985 24.97248 3805 ft 216 kts 288°
2026-05-04 13:23 60.48186 24.94364 3569 ft 203 kts 262°
2026-05-04 13:24 60.47734 24.91758 3406 ft 192 kts 244°
2026-05-04 13:24 60.47133 24.89364 3060 ft 190 kts 244°
2026-05-04 13:24 60.46524 24.86971 2742 ft 191 kts 241°
2026-05-04 13:25 60.44202 24.85015 2397 ft 201 kts 165°
2026-05-04 13:25 60.42920 24.86214 2280 ft 203 kts 154°
2026-05-04 13:25 60.41665 24.87539 2120 ft 203 kts 154°
2026-05-04 13:25 60.40430 24.88825 1877 ft 196 kts 154°
2026-05-04 13:26 60.39242 24.90055 1585 ft 185 kts 154°
2026-05-04 13:26 60.38168 24.91165 1370 ft 168 kts 154°
2026-05-04 13:26 60.37168 24.92196 1119 ft 155 kts 154°
2026-05-04 13:26 60.36238 24.93155 904 ft 146 kts 155°
2026-05-04 13:27 60.35346 24.94070 732 ft 142 kts 154°
2026-05-04 13:27 60.34471 24.94964 539 ft 140 kts 154°
2026-05-04 13:27 60.33609 24.95861 353 ft 138 kts 154°
2026-05-04 13:27 60.32754 24.96736 181 ft 136 kts 154°
2026-05-04 13:28 60.32022 24.97487 155 ft 81 kts 154°
2026-05-04 13:28 60.31748 24.97752 153 ft 19 kts 155°
2026-05-04 13:28 60.31687 24.97709 155 ft 11 kts 249°
2026-05-04 13:28 60.31673 24.97540 160 ft 11 kts 285°
2026-05-04 13:29 60.31727 24.97445 161 ft 11 kts 331°
2026-05-04 13:29 60.31794 24.97375 162 ft 11 kts 333°
2026-05-04 13:29 60.31887 24.97280 162 ft 16 kts 333°
2026-05-04 13:29 60.31987 24.97176 162 ft 16 kts 333°
2026-05-04 13:30 60.32086 24.97074 162 ft 16 kts 333°
2026-05-04 13:30 60.32137 24.96957 163 ft 10 kts 259°
2026-05-04 13:30 60.32095 24.96851 164 ft 9 kts 226°
2026-05-04 13:30 60.32051 24.96756 164 ft 8 kts 226°
2026-05-04 13:31 60.32006 24.96732 163 ft 7 kts 177°
2026-05-04 13:31 60.31976 24.96738 163 ft 2 kts 174°
2026-05-04 13:31 60.31969 24.96739 163 ft 0 kts 174°